User: anonymous   Login
Location: St. Louis
(38.6270°N, 90.1994°W)
Time: 13:07:44
(UTC-06:00)
Language:

First-Move - Orbit

View from above orbital plane
View from above orbital plane
View from above satellite
View from above satellite

Ground track
Ground track

The orbit data is extracted from the following two-line orbital elements,

1 39439U 13066Z   22018.88197452  .00001842  00000-0  22434-3 0  9994
2 39439  97.6213 359.3260 0064214 170.2163 190.0319 14.83111150439872
Epoch (UTC): 18 January 2022 21:10:02
Eccentricity: 0.0064214
inclination: 97.6213°
perigee height: 574 km
apogee height: 664 km
right ascension of ascending node: 359.3260°
argument of perigee: 170.2163°
revolutions per day: 14.83111150
mean anomaly at epoch: 190.0319°
orbit number at epoch: 43987

The dashed part of the orbit path shows where the satellite is in the earth's shadow,  

DLR